Location: Perryvale
(54.4667°N, 113.3833°W)
Time: 21:35:39
(UTC+00:00)

Vanguard 1 Rocket - Pass Details

Date: 20 May 2024
Orbit: 649 x 4220 km, 34.3° (Epoch: 19 June)

Event Time Altitude Azimuth Distance (km) Brightness Sun altitude
Rises 16:12:01 0° 210° (SSW) 8,027 12.2 39.4°
Reaches altitude 10° 16:20:11 10° 197° (SSW) 6,462 11.9 40.5°
Maximum altitude 16:31:49 20° 160° (SSE) 4,571 11.8 42.0°
Drops below altitude 10° 16:40:00 10° 120° (ESE) 4,395 12.0 43.1°
Sets 16:43:58 0° 103° (ESE) 4,874 11.9 43.6°
